Regional Weather Roundup
Issued by NWS Kansas City/Pleasant Hill, MO

Home | Current Version | Previous Version | Graphics & Text | Print | Product List | Glossary Off
Versions: 1 2 3 4 5 6 7 8 9 10 11 12 13 14 15 16 17 18 19 20 21 22 23 24 25 26 27 28 29 30 31 32 33 34 35 36 37 38 39 40 41 42 43 44 45 46 47 48 49 50

000
ASUS43 KEAX 031110
RWREAX

WEATHER ROUNDUP FOR EASTERN KANSAS AND NORTHWEST MISSOURI
NATIONAL WEATHER SERVICE KANSAS CITY/PLEASANT HILL MO
500 AM CST TUE MAR 03 2015

KSZ040-057-103>105-MOZ028-029-037-043-031200-
...KANSAS CITY METROPOLITAN AREA...

CITY           SKY/WX    TMP DP  RH WIND       PRES   REMARKS
K.C. INTL      DRIZZLE   35  34  96 S17       29.74F WCI  25
K.C. DOWNTOWN  CLOUDY    37  34  89 S16G25    29.77F WCI  28
LEES SUMMIT    CLOUDY    34  32  92 S18G25    29.76F FOG     WCI  23
OLATHE - IXD   CLOUDY    35  34  96 S18G30    29.77F FOG     WCI  24
OLATHE - OJC   CLOUDY    35  35 100 SW9G30    29.77F FOG     WCI  28
LAWRENCE       CLOUDY    36  34  92 S12G31    29.74F FOG     WCI  28

$$

MOZ001>008-011>017-020>025-030>033-038>040-044>046-053-054-031200-
...NORTHERN AND CENTRAL MISSOURI...

CITY           SKY/WX    TMP DP  RH WIND       PRES   REMARKS
ST. JOSEPH     CLOUDY    34  33  96 S12       29.73F FOG     WCI  25
MOSBY          CLOUDY    34  34 100 SE7       29.78F FOG     WCI  28
WARRENSBURG    CLOUDY    34  32  93 S14G20    29.81F WCI  24
WHITEMAN AFB   CLOUDY    35  31  85 S20G25    29.81F WCI  24
CLINTON        CLOUDY    36  32  87 S13       29.86F WCI  27
SEDALIA        CLOUDY    36  30  79 S16       29.84F WCI  26
WARSAW         NOT AVBL
MARSHALL       CLOUDY    36  34  93 SE6       29.90F WCI  31
CHILLICOTHE      N/A     32  30  92 S13       29.79F WCI  22
MOBERLY        CLOUDY    32  27  80 SE9       29.88F WCI  24
KIRKSVILLE     CLOUDY    29  29 100 SE14      29.82F FOG     WCI  18

$$

MOZ041-047>049-056>058-063>065-088>090-097-031200-
...EASTERN AND SOUTHERN MISSOURI...

CITY           SKY/WX    TMP DP  RH WIND       PRES   REMARKS
ST. LOUIS INTL CLOUDY    34  24  67 SE8       29.97F WCI  27
SPIRIT OF STL  CLOUDY    33  25  72 CALM      29.96F
COLUMBIA       CLOUDY    34  28  79 S9        29.90F WCI  27
JEFFERSON CITY CLOUDY    36  29  75 S5        29.93F WCI  32
MEXICO         CLOUDY    32  30  93 SE6       29.90F FOG     WCI  26
ROLLA          CLOUDY    34  30  85 S15       29.90F WCI  24
LEBANON        MIX PCPN  34  32  93 S5        29.91R WCI  30
OSAGE BEACH    CLOUDY    36  28  75 S8        29.92S WCI  29
SPRINGFIELD    CLOUDY    34  31  88 S13G33    29.89F WCI  25
BRANSON        CLOUDY    34  32  93 CALM      29.93R
NEVADA         CLOUDY    36  34  93 S18       29.86F WCI  25
JOPLIN         CLOUDY    37  36  96 S14       29.89F FOG     WCI  28
WEST PLAINS    CLOUDY    32  29  88 S9        29.97F FOG     WCI  24

$$

IAZ060-094-KSZ022-034>040-054-083-096-NEZ052-066-093-031200-
...KANSAS...SOUTHEAST NEBRASKA AND IOWA...

CITY           SKY/WX    TMP DP  RH WIND       PRES   REMARKS
TOPEKA         CLOUDY    37  34  89 S12       29.72F WCI  29
MANHATTAN      CLOUDY    38  35  89 SW15      29.71R WCI  29
EMPORIA        CLOUDY    36  35  96 S17G30    29.73F FOG     WCI  26
CHANUTE        CLOUDY    36  36 100 S18G26    29.83F FOG     WCI  26
WICHITA        CLOUDY    36  33  89 S18G29    29.75F FOG     WCI  26
OMAHA          FRZ DRZL  31  28  89 S14       29.67F WCI  21
LINCOLN        CLOUDY    31  30  96 SE9       29.66F FOG     WCI  23
FALLS CITY     CLOUDY    34  32  92 S9        29.71F FOG     WCI  27
LAMONI         FRZ RAIN  31  30  96 S15G24    29.74F FOG     WCI  20
DES MOINES     FRZ DRZL  30  25  81 S13       29.75F WCI  20

$$



USA.gov is the U.S. government's official web portal to all federal, state and local government web resources and services.